QPF
0.00 0.00 0.00 0.00 0.00 0.00 0.00 0.00 0.00 0.00 0.00 0.00 0.00 0.00 0.00 0.00 0.01 0.01 0.01 0.00 0.00 0.01 0.01 0.01 0.03 0.01 0.01 0.03 0.08 0.07 0.05 0.04 0.04 0.04 0.04 0.04 0.05 0.05 0.06 0.05 0.03 0.02 0.01 0.01
0.00 0.00 0.00 0.00 0.00 0.00 0.00 0.00 0.00 0.00 0.00 0.00 0.00 0.00 0.00 0.00 0.00 0.00 0.00 0.00 0.00 0.01 0.01 0.01 0.01 0.00 0.00 0.01 0.04 0.05 0.04 0.03 0.02 0.03 0.03 0.03 0.03 0.06 0.07 0.04 0.03 0.03 0.02 0.02
0.00 0.00 0.00 0.00 0.00 0.00 0.00 0.00 0.00 0.00 0.00 0.00 0.00 0.00 0.00 0.01 0.01 0.00 0.00 0.01 0.00 0.00 0.00 0.01 0.00 0.00 0.00 0.01 0.02 0.03 0.03 0.02 0.02 0.03 0.04 0.04 0.05 0.09 0.12 0.07 0.04 0.04 0.04 0.03
0.00 0.00 0.00 0.00 0.00 0.00 0.00 0.00 0.00 0.00 0.00 0.00 0.00 0.00 0.00 0.00 0.00 0.00 0.00 0.01 0.00 0.00 0.00 0.01 0.00 0.01 0.01 0.01 0.01 0.02 0.03 0.02 0.02 0.03 0.04 0.04 0.04 0.05 0.08 0.07 0.04 0.05 0.04 0.04
0.00 0.00 0.00 0.00 0.00 0.00 0.00 0.00 0.00 0.00 0.00 0.00 0.00 0.00 0.00 0.00 0.00 0.00 0.00 0.01 0.01 0.00 0.01 0.01 0.02 0.02 0.02 0.02 0.02 0.02 0.03 0.03 0.03 0.03 0.03 0.03 0.03 0.02 0.02 0.03 0.03 0.05 0.05 0.05
0.00 0.00 0.00 0.00 0.00 0.00 0.00 0.00 0.00 0.00 0.00 0.00 0.00 0.00 0.01 0.00 0.00 0.00 0.00 0.01 0.01 0.01 0.01 0.01 0.03 0.03 0.03 0.01 0.02 0.03 0.02 0.03 0.02 0.03 0.02 0.02 0.02 0.02 0.02 0.02 0.03 0.04 0.04 0.04
0.00 0.00 0.00 0.00 0.00 0.00 0.00 0.00 0.00 0.01 0.01 0.00 0.00 0.00 0.00 0.00 0.00 0.01 0.01 0.01 0.01 0.01 0.01 0.02 0.04 0.04 0.02 0.01 0.02 0.02 0.02 0.02 0.02 0.02 0.03 0.02 0.02 0.02 0.02 0.02 0.02 0.03 0.03 0.02
0.00 0.00 0.00 0.00 0.00 0.00 0.00 0.00 0.00 0.01 0.01 0.00 0.00 0.01 0.00 0.00 0.01 0.01 0.02 0.04 0.03 0.02 0.02 0.03 0.03 0.03 0.02 0.01 0.01 0.01 0.01 0.01 0.02 0.02 0.03 0.03 0.02 0.02 0.02 0.02 0.02 0.02 0.02 0.02
0.00 0.00 0.00 0.00 0.00 0.00 0.00 0.00 0.00 0.01 0.01 0.01 0.01 0.01 0.01 0.01 0.01 0.02 0.06 0.10 0.05 0.03 0.04 0.05 0.04 0.02 0.02 0.01 0.01 0.02 0.01 0.01 0.01 0.02 0.02 0.03 0.04 0.03 0.02 0.02 0.02 0.01 0.01 0.01
0.00 0.00 0.00 0.00 0.00 0.00 0.00 0.00 0.01 0.01 0.01 0.01 0.01 0.02 0.01 0.01 0.01 0.02 0.08 0.14 0.08 0.04 0.03 0.02 0.02 0.02 0.02 0.01 0.02 0.02 0.01 0.01 0.01 0.01 0.01 0.01 0.02 0.02 0.02 0.01 0.01 0.01 0.01 0.01
0.00 0.00 0.00 0.00 0.00 0.00 0.00 0.00 0.01 0.02 0.02 0.02 0.02 0.02 0.02 0.01 0.02 0.03 0.08 0.16 0.09 0.04 0.03 0.03 0.02 0.02 0.01 0.01 0.01 0.01 0.01 0.01 0.01 0.01 0.01 0.02 0.01 0.01 0.01 0.01 0.01 0.01 0.01 0.01
0.01 0.01 0.00 0.00 0.00 0.00 0.00 0.00 0.01 0.02 0.02 0.02 0.03 0.03 0.02 0.01 0.02 0.04 0.10 0.16 0.09 0.05 0.04 0.03 0.02 0.01 0.01 0.01 0.01 0.01 0.00 0.00 0.01 0.02 0.03 0.03 0.02 0.01 0.01 0.01 0.01 0.01 0.01 0.01
0.02 0.01 0.01 0.01 0.00 0.00 0.00 0.00 0.01 0.01 0.02 0.02 0.02 0.02 0.02 0.02 0.02 0.03 0.06 0.10 0.06 0.04 0.04 0.02 0.02 0.01 0.01 0.01 0.01 0.01 0.01 0.01 0.01 0.02 0.05 0.03 0.01 0.01 0.02 0.02 0.01 0.01 0.01 0.01
0.03 0.01 0.01 0.01 0.01 0.01 0.01 0.01 0.01 0.01 0.03 0.02 0.03 0.03 0.04 0.05 0.03 0.02 0.03 0.03 0.03 0.03 0.02 0.02 0.02 0.01 0.02 0.02 0.02 0.02 0.01 0.01 0.01 0.02 0.03 0.02 0.01 0.01 0.02 0.02 0.01 0.02 0.02 0.02
0.03 0.02 0.01 0.00 0.00 0.00 0.00 0.01 0.01 0.02 0.03 0.04 0.04 0.04 0.05 0.04 0.03 0.02 0.02 0.01 0.02 0.02 0.02 0.02 0.02 0.02 0.02 0.02 0.02 0.03 0.02 0.01 0.01 0.01 0.02 0.01 0.01 0.01 0.01 0.01 0.01 0.02 0.02 0.01
0.03 0.02 0.01 0.01 0.00 0.00 0.01 0.01 0.02 0.02 0.04 0.04 0.04 0.04 0.04 0.03 0.02 0.02 0.02 0.02 0.02 0.01 0.01 0.02 0.01 0.01 0.02 0.02 0.03 0.04 0.04 0.03 0.02 0.02 0.01 0.01 0.01 0.01 0.01 0.01 0.01 0.02 0.02 0.01
0.02 0.02 0.02 0.02 0.01 0.01 0.02 0.02 0.02 0.02 0.05 0.04 0.02 0.03 0.03 0.03 0.03 0.02 0.02 0.01 0.01 0.01 0.01 0.01 0.01 0.01 0.01 0.01 0.02 0.04 0.05 0.05 0.04 0.03 0.02 0.02 0.01 0.01 0.01 0.01 0.01 0.02 0.02 0.02
0.02 0.02 0.02 0.03 0.03 0.03 0.03 0.03 0.03 0.02 0.06 0.03 0.01 0.02 0.03 0.03 0.02 0.01 0.01 0.01 0.01 0.01 0.02 0.01 0.01 0.01 0.01 0.02 0.02 0.03 0.04 0.04 0.04 0.04 0.03 0.02 0.01 0.01 0.00 0.01 0.02 0.02 0.03 0.03
0.02 0.03 0.03 0.03 0.04 0.04 0.04 0.02 0.03 0.04 0.06 0.05 0.02 0.03 0.03 0.03 0.02 0.02 0.02 0.01 0.02 0.02 0.02 0.01 0.01 0.01 0.01 0.01 0.02 0.01 0.01 0.02 0.03 0.03 0.02 0.02 0.01 0.01 0.01 0.01 0.02 0.02 0.02 0.03
0.03 0.03 0.03 0.03 0.04 0.06 0.05 0.03 0.02 0.03 0.06 0.04 0.04 0.04 0.04 0.04 0.04 0.04 0.02 0.02 0.01 0.01 0.01 0.01 0.01 0.02 0.01 0.01 0.02 0.01 0.01 0.01 0.02 0.02 0.01 0.01 0.01 0.01 0.01 0.01 0.02 0.03 0.03 0.03
0.03 0.03 0.04 0.04 0.05 0.06 0.06 0.04 0.02 0.05 0.06 0.04 0.04 0.03 0.03 0.03 0.03 0.04 0.03 0.02 0.01 0.01 0.01 0.01 0.01 0.01 0.02 0.02 0.02 0.02 0.02 0.02 0.01 0.01 0.01 0.01 0.01 0.01 0.01 0.01 0.01 0.02 0.03 0.03
0.04 0.03 0.03 0.03 0.04 0.05 0.05 0.04 0.04 0.05 0.05 0.04 0.03 0.03 0.02 0.02 0.01 0.02 0.02 0.02 0.01 0.01 0.01 0.01 0.01 0.01 0.02 0.02 0.02 0.02 0.02 0.02 0.01 0.01 0.02 0.02 0.02 0.02 0.01 0.01 0.01 0.02 0.02 0.02
0.04 0.04 0.05 0.05 0.04 0.04 0.03 0.04 0.04 0.04 0.03 0.03 0.03 0.03 0.02 0.02 0.01 0.01 0.01 0.01 0.01 0.01 0.01 0.01 0.02 0.02 0.01 0.02 0.03 0.03 0.02 0.03 0.03 0.03 0.02 0.02 0.02 0.02 0.02 0.02 0.03 0.02 0.02 0.01
0.03 0.02 0.04 0.05 0.03 0.03 0.03 0.03 0.03 0.03 0.03 0.03 0.04 0.04 0.03 0.03 0.03 0.03 0.02 0.01 0.01 0.01 0.02 0.03 0.03 0.03 0.03 0.04 0.04 0.04 0.04 0.04 0.04 0.04 0.04 0.03 0.02 0.02 0.02 0.02 0.03 0.04 0.03 0.02
0.04 0.04 0.04 0.04 0.05 0.07 0.06 0.04 0.03 0.03 0.03 0.02 0.03 0.04 0.04 0.04 0.04 0.04 0.03 0.03 0.03 0.03 0.02 0.04 0.03 0.04 0.04 0.05 0.07 0.06 0.06 0.06 0.05 0.05 0.04 0.04 0.03 0.03 0.02 0.02 0.02 0.03 0.04 0.04
0.04 0.05 0.05 0.07 0.09 0.09 0.07 0.05 0.03 0.04 0.03 0.02 0.03 0.03 0.02 0.02 0.03 0.03 0.03 0.04 0.04 0.04 0.04 0.04 0.04 0.04 0.03 0.03 0.04 0.04 0.05 0.06 0.06 0.04 0.04 0.04 0.04 0.04 0.03 0.03 0.02 0.02 0.03 0.04
MSLP
1005.47 1005.47 1005.44 1005.40 1005.37 1005.37 1005.41 1005.46 1005.48 1005.44 1005.31 1005.07 1004.75 1004.40 1004.07 1003.85 1003.81 1003.98 1004.37 1004.97 1005.72 1006.55 1007.39 1008.20 1008.94 1009.59 1010.16 1010.67 1011.13 1011.58 1011.99 1012.36 1012.69 1012.95 1013.13 1013.24 1013.29 1013.31 1013.32 1013.33 1013.38 1013.45 1013.53 1013.61
1005.32 1005.25 1005.17 1005.11 1005.09 1005.14 1005.25 1005.38 1005.49 1005.51 1005.42 1005.18 1004.82 1004.39 1003.97 1003.65 1003.50 1003.60 1003.94 1004.53 1005.30 1006.19 1007.11 1007.99 1008.80 1009.51 1010.12 1010.66 1011.14 1011.60 1012.03 1012.44 1012.80 1013.10 1013.33 1013.49 1013.57 1013.60 1013.61 1013.62 1013.65 1013.71 1013.79 1013.89
1005.04 1004.90 1004.77 1004.69 1004.71 1004.84 1005.05 1005.30 1005.52 1005.65 1005.61 1005.40 1005.01 1004.51 1003.99 1003.54 1003.28 1003.26 1003.54 1004.08 1004.85 1005.77 1006.74 1007.70 1008.57 1009.33 1009.99 1010.56 1011.06 1011.54 1012.00 1012.44 1012.85 1013.21 1013.49 1013.70 1013.82 1013.87 1013.88 1013.89 1013.91 1013.96 1014.05 1014.16
1004.69 1004.45 1004.27 1004.20 1004.27 1004.48 1004.82 1005.21 1005.58 1005.82 1005.88 1005.70 1005.30 1004.74 1004.11 1003.54 1003.14 1003.00 1003.17 1003.65 1004.39 1005.31 1006.31 1007.31 1008.24 1009.05 1009.75 1010.35 1010.89 1011.39 1011.88 1012.37 1012.83 1013.25 1013.59 1013.86 1014.03 1014.12 1014.15 1014.16 1014.17 1014.22 1014.31 1014.44
1004.36 1004.03 1003.79 1003.71 1003.81 1004.11 1004.57 1005.11 1005.62 1006.00 1006.15 1006.03 1005.63 1005.02 1004.30 1003.60 1003.06 1002.79 1002.84 1003.22 1003.90 1004.80 1005.81 1006.84 1007.81 1008.67 1009.41 1010.05 1010.63 1011.16 1011.69 1012.22 1012.73 1013.21 1013.63 1013.96 1014.19 1014.33 1014.39 1014.42 1014.44 1014.49 1014.58 1014.72
1004.19 1003.76 1003.44 1003.31 1003.42 1003.77 1004.31 1004.96 1005.60 1006.10 1006.34 1006.28 1005.89 1005.25 1004.45 1003.65 1002.98 1002.57 1002.49 1002.78 1003.39 1004.25 1005.26 1006.30 1007.30 1008.21 1008.99 1009.67 1010.28 1010.85 1011.42 1011.99 1012.56 1013.11 1013.60 1014.00 1014.30 1014.49 1014.60 1014.65 1014.68 1014.74 1014.83 1014.98
1004.33 1003.77 1003.34 1003.12 1003.17 1003.50 1004.06 1004.76 1005.47 1006.04 1006.35 1006.33 1005.97 1005.31 1004.46 1003.58 1002.80 1002.28 1002.10 1002.30 1002.84 1003.66 1004.65 1005.71 1006.74 1007.68 1008.51 1009.23 1009.88 1010.48 1011.09 1011.71 1012.33 1012.94 1013.49 1013.96 1014.32 1014.57 1014.73 1014.81 1014.87 1014.93 1015.04 1015.19
1004.86 1004.15 1003.56 1003.20 1003.12 1003.34 1003.83 1004.49 1005.19 1005.77 1006.11 1006.12 1005.78 1005.13 1004.26 1003.33 1002.50 1001.91 1001.65 1001.77 1002.26 1003.04 1004.02 1005.09 1006.14 1007.12 1007.99 1008.76 1009.44 1010.09 1010.73 1011.38 1012.04 1012.69 1013.30 1013.83 1014.25 1014.56 1014.76 1014.88 1014.96 1015.05 1015.16 1015.32
1005.78 1004.90 1004.11 1003.54 1003.26 1003.29 1003.62 1004.15 1004.76 1005.29 1005.62 1005.63 1005.31 1004.68 1003.83 1002.91 1002.06 1001.44 1001.14 1001.22 1001.67 1002.42 1003.39 1004.47 1005.55 1006.56 1007.47 1008.28 1009.00 1009.68 1010.35 1011.03 1011.72 1012.40 1013.05 1013.62 1014.09 1014.44 1014.69 1014.85 1014.95 1015.06 1015.18 1015.35
1006.97 1005.91 1004.92 1004.10 1003.56 1003.34 1003.43 1003.76 1004.21 1004.64 1004.91 1004.91 1004.61 1004.03 1003.23 1002.35 1001.54 1000.93 1000.63 1000.70 1001.13 1001.86 1002.82 1003.89 1004.98 1006.02 1006.96 1007.81 1008.56 1009.27 1009.96 1010.66 1011.37 1012.07 1012.74 1013.34 1013.84 1014.23 1014.51 1014.70 1014.84 1014.97 1015.11 1015.29
1008.23 1007.01 1005.81 1004.74 1003.92 1003.42 1003.24 1003.34 1003.60 1003.90 1004.09 1004.08 1003.80 1003.28 1002.56 1001.77 1001.03 1000.48 1000.21 1000.27 1000.68 1001.40 1002.33 1003.39 1004.47 1005.52 1006.48 1007.34 1008.13 1008.86 1009.57 1010.28 1011.00 1011.71 1012.39 1013.01 1013.53 1013.95 1014.26 1014.49 1014.66 1014.80 1014.96 1015.16
1009.30 1007.96 1006.58 1005.30 1004.24 1003.48 1003.06 1002.93 1003.01 1003.17 1003.29 1003.26 1003.03 1002.59 1001.98 1001.29 1000.65 1000.17 999.93 1000.00 1000.39 1001.06 1001.95 1002.96 1004.02 1005.04 1006.00 1006.88 1007.68 1008.43 1009.16 1009.88 1010.61 1011.33 1012.01 1012.64 1013.19 1013.63 1013.97 1014.23 1014.43 1014.60 1014.78 1015.00
1009.96 1008.55 1007.06 1005.64 1004.42 1003.48 1002.87 1002.57 1002.50 1002.56 1002.63 1002.62 1002.44 1002.09 1001.60 1001.03 1000.49 1000.07 999.87 999.93 1000.27 1000.87 1001.68 1002.61 1003.60 1004.58 1005.51 1006.38 1007.19 1007.95 1008.70 1009.44 1010.18 1010.91 1011.61 1012.25 1012.82 1013.29 1013.66 1013.96 1014.19 1014.40 1014.61 1014.84
1010.08 1008.66 1007.16 1005.70 1004.42 1003.40 1002.70 1002.31 1002.16 1002.17 1002.23 1002.24 1002.13 1001.87 1001.49 1001.03 1000.57 1000.21 1000.02 1000.05 1000.32 1000.81 1001.50 1002.31 1003.20 1004.09 1004.97 1005.81 1006.62 1007.40 1008.17 1008.93 1009.70 1010.45 1011.17 1011.84 1012.43 1012.94 1013.35 1013.68 1013.96 1014.20 1014.44 1014.69
1009.67 1008.32 1006.89 1005.50 1004.27 1003.29 1002.60 1002.20 1002.05 1002.06 1002.13 1002.18 1002.13 1001.96 1001.67 1001.29 1000.90 1000.56 1000.35 1000.32 1000.48 1000.85 1001.38 1002.04 1002.79 1003.58 1004.38 1005.17 1005.96 1006.75 1007.54 1008.34 1009.14 1009.93 1010.68 1011.38 1012.01 1012.56 1013.02 1013.40 1013.72 1014.00 1014.27 1014.53
1008.89 1007.67 1006.40 1005.18 1004.10 1003.25 1002.66 1002.33 1002.22 1002.26 1002.35 1002.43 1002.43 1002.32 1002.08 1001.76 1001.40 1001.06 1000.81 1000.69 1000.73 1000.94 1001.30 1001.79 1002.38 1003.04 1003.74 1004.47 1005.24 1006.02 1006.83 1007.66 1008.50 1009.33 1010.13 1010.87 1011.55 1012.14 1012.64 1013.07 1013.44 1013.76 1014.06 1014.34
1007.99 1006.95 1005.90 1004.91 1004.05 1003.39 1002.95 1002.73 1002.69 1002.76 1002.87 1002.96 1002.97 1002.87 1002.65 1002.34 1001.98 1001.62 1001.31 1001.10 1001.01 1001.06 1001.25 1001.56 1001.99 1002.51 1003.10 1003.76 1004.48 1005.25 1006.08 1006.93 1007.81 1008.68 1009.51 1010.30 1011.02 1011.65 1012.20 1012.67 1013.08 1013.44 1013.77 1014.07
1007.26 1006.44 1005.63 1004.90 1004.29 1003.85 1003.57 1003.45 1003.45 1003.53 1003.63 1003.68 1003.65 1003.52 1003.29 1002.96 1002.57 1002.18 1001.81 1001.51 1001.31 1001.22 1001.25 1001.41 1001.68 1002.06 1002.54 1003.11 1003.78 1004.53 1005.35 1006.21 1007.11 1008.00 1008.87 1009.68 1010.43 1011.09 1011.67 1012.18 1012.62 1013.01 1013.36 1013.68
1006.93 1006.33 1005.77 1005.29 1004.92 1004.65 1004.51 1004.46 1004.47 1004.51 1004.53 1004.50 1004.39 1004.19 1003.90 1003.53 1003.12 1002.69 1002.29 1001.93 1001.65 1001.45 1001.37 1001.39 1001.53 1001.78 1002.15 1002.64 1003.24 1003.94 1004.73 1005.58 1006.47 1007.36 1008.23 1009.05 1009.81 1010.48 1011.08 1011.60 1012.06 1012.47 1012.84 1013.17
1007.11 1006.71 1006.37 1006.11 1005.91 1005.78 1005.71 1005.67 1005.64 1005.59 1005.49 1005.33 1005.11 1004.81 1004.45 1004.04 1003.61 1003.18 1002.76 1002.39 1002.07 1001.83 1001.66 1001.59 1001.63 1001.77 1002.04 1002.44 1002.96 1003.59 1004.32 1005.13 1005.98 1006.84 1007.68 1008.48 1009.21 1009.87 1010.46 1010.98 1011.44 1011.86 1012.23 1012.58
1007.73 1007.51 1007.35 1007.24 1007.17 1007.12 1007.06 1006.98 1006.85 1006.66 1006.42 1006.11 1005.75 1005.36 1004.93 1004.50 1004.08 1003.67 1003.29 1002.95 1002.64 1002.39 1002.20 1002.08 1002.04 1002.11 1002.28 1002.59 1003.01 1003.56 1004.21 1004.93 1005.71 1006.50 1007.28 1008.02 1008.71 1009.33 1009.88 1010.38 1010.82 1011.23 1011.61 1011.96
1008.63 1008.55 1008.52 1008.52 1008.51 1008.48 1008.38 1008.21 1007.96 1007.63 1007.23 1006.78 1006.31 1005.83 1005.37 1004.95 1004.56 1004.22 1003.92 1003.65 1003.41 1003.19 1003.01 1002.88 1002.80 1002.80 1002.90 1003.11 1003.43 1003.87 1004.42 1005.04 1005.71 1006.41 1007.10 1007.75 1008.36 1008.91 1009.41 1009.86 1010.28 1010.67 1011.04 1011.40
1009.55 1009.57 1009.63 1009.69 1009.71 1009.66 1009.51 1009.24 1008.87 1008.41 1007.88 1007.32 1006.77 1006.26 1005.81 1005.43 1005.12 1004.88 1004.69 1004.52 1004.38 1004.23 1004.09 1003.97 1003.87 1003.83 1003.86 1003.97 1004.20 1004.52 1004.95 1005.45 1006.00 1006.58 1007.15 1007.69 1008.20 1008.67 1009.10 1009.49 1009.87 1010.24 1010.59 1010.95
1010.26 1010.36 1010.48 1010.57 1010.59 1010.51 1010.30 1009.96 1009.50 1008.95 1008.35 1007.74 1007.17 1006.67 1006.27 1005.98 1005.78 1005.66 1005.60 1005.56 1005.52 1005.46 1005.38 1005.28 1005.18 1005.10 1005.07 1005.11 1005.23 1005.44 1005.75 1006.12 1006.54 1006.98 1007.42 1007.85 1008.25 1008.62 1008.97 1009.30 1009.62 1009.95 1010.29 1010.65
1010.61 1010.77 1010.92 1011.03 1011.05 1010.95 1010.71 1010.33 1009.84 1009.26 1008.65 1008.06 1007.53 1007.10 1006.79 1006.60 1006.53 1006.54 1006.61 1006.68 1006.75 1006.77 1006.74 1006.67 1006.58 1006.48 1006.40 1006.37 1006.41 1006.52 1006.71 1006.95 1007.24 1007.56 1007.87 1008.18 1008.47 1008.74 1008.99 1009.25 1009.52 1009.81 1010.12 1010.46
1010.56 1010.76 1010.94 1011.06 1011.09 1011.00 1010.77 1010.40 1009.93 1009.40 1008.84 1008.32 1007.88 1007.55 1007.36 1007.29 1007.34 1007.47 1007.64 1007.81 1007.95 1008.04 1008.06 1008.01 1007.92 1007.81 1007.70 1007.62 1007.59 1007.62 1007.71 1007.85 1008.02 1008.21 1008.41 1008.60 1008.78 1008.95 1009.12 1009.30 1009.51 1009.75 1010.03 1010.34
Thickness
5766 5762 5761 5770 5774 5776 5775 5772 5771 5777 5787 5781 5778 5780 5785 5791 5791 5790 5791 5791 5790 5789 5792 5791 5789 5786 5782 5778 5774 5770 5767 5764 5761 5758 5755 5752 5749 5748 5746 5744 5741 5738 5737 5736
5754 5754 5770 5774 5772 5766 5765 5762 5765 5773 5780 5774 5772 5773 5782 5785 5785 5786 5786 5787 5786 5786 5786 5784 5783 5782 5778 5774 5770 5767 5764 5762 5759 5757 5754 5751 5749 5746 5744 5741 5738 5736 5735 5734
5749 5762 5768 5761 5757 5753 5757 5758 5762 5763 5769 5771 5766 5763 5773 5781 5784 5784 5785 5786 5786 5785 5782 5780 5778 5777 5775 5771 5768 5766 5763 5759 5757 5755 5752 5748 5745 5742 5740 5737 5736 5734 5733 5732
5749 5759 5755 5751 5751 5753 5750 5764 5762 5759 5754 5757 5761 5751 5767 5774 5774 5776 5778 5780 5781 5782 5780 5778 5775 5772 5771 5769 5767 5764 5760 5756 5754 5752 5749 5746 5742 5738 5737 5735 5734 5732 5731 5730
5742 5749 5746 5743 5750 5754 5755 5764 5758 5755 5752 5751 5757 5750 5763 5770 5764 5768 5771 5773 5776 5778 5777 5774 5772 5769 5768 5767 5764 5761 5757 5753 5751 5749 5746 5743 5741 5738 5736 5734 5730 5729 5729 5727
5742 5749 5748 5747 5753 5753 5753 5749 5747 5748 5747 5732 5749 5745 5751 5762 5762 5764 5767 5768 5769 5772 5772 5770 5768 5766 5763 5763 5761 5757 5753 5749 5747 5745 5743 5739 5736 5734 5731 5729 5727 5727 5727 5725
5726 5735 5742 5746 5739 5743 5743 5732 5723 5723 5726 5735 5753 5742 5747 5758 5762 5762 5760 5761 5763 5765 5765 5764 5761 5759 5757 5757 5755 5753 5749 5745 5743 5741 5739 5736 5733 5730 5728 5726 5725 5725 5724 5723
5713 5718 5731 5736 5734 5731 5734 5734 5721 5715 5724 5738 5742 5736 5745 5754 5756 5757 5756 5755 5756 5757 5758 5758 5757 5754 5752 5751 5749 5747 5745 5742 5740 5737 5734 5732 5730 5729 5727 5723 5723 5722 5721 5720
5711 5715 5730 5732 5735 5733 5726 5730 5741 5729 5728 5724 5732 5734 5737 5741 5742 5743 5744 5745 5746 5748 5749 5750 5750 5749 5747 5745 5743 5742 5740 5738 5735 5733 5730 5727 5726 5724 5722 5720 5719 5719 5717 5716
5710 5702 5718 5724 5726 5727 5730 5729 5724 5717 5705 5706 5721 5724 5728 5725 5727 5731 5732 5735 5738 5739 5740 5742 5742 5741 5740 5740 5738 5737 5735 5733 5730 5728 5725 5724 5721 5719 5717 5716 5714 5712 5711 5710
5703 5695 5703 5709 5707 5710 5712 5712 5712 5715 5717 5706 5707 5718 5730 5727 5725 5724 5727 5729 5729 5731 5733 5733 5734 5734 5734 5733 5733 5730 5729 5727 5724 5722 5720 5717 5716 5713 5712 5710 5709 5708 5706 5704
5692 5692 5692 5700 5711 5715 5710 5708 5705 5695 5698 5706 5707 5709 5721 5723 5722 5721 5721 5721 5722 5723 5725 5727 5728 5728 5726 5726 5725 5723 5722 5721 5720 5717 5715 5713 5711 5708 5707 5705 5704 5703 5701 5700
5681 5678 5675 5684 5691 5697 5697 5699 5700 5698 5694 5694 5694 5699 5710 5713 5711 5711 5711 5712 5713 5714 5717 5719 5720 5720 5718 5717 5717 5717 5715 5715 5715 5712 5709 5707 5705 5702 5701 5700 5699 5697 5696 5695
5675 5672 5673 5675 5684 5689 5684 5687 5690 5687 5684 5685 5690 5694 5696 5699 5700 5701 5702 5703 5704 5706 5708 5710 5710 5710 5710 5709 5709 5708 5708 5709 5707 5705 5703 5700 5698 5697 5695 5694 5693 5692 5690 5689
5668 5666 5672 5678 5684 5683 5680 5680 5680 5677 5680 5679 5683 5686 5687 5692 5692 5692 5694 5695 5696 5697 5699 5700 5701 5701 5701 5701 5701 5702 5701 5700 5699 5697 5695 5693 5692 5691 5690 5688 5687 5686 5685 5685
5660 5658 5664 5666 5674 5674 5671 5673 5673 5670 5672 5673 5674 5673 5682 5684 5684 5683 5684 5685 5686 5689 5690 5692 5692 5693 5694 5694 5694 5693 5692 5691 5691 5689 5688 5688 5686 5685 5683 5683 5681 5680 5679 5679
5653 5651 5651 5658 5667 5664 5656 5663 5665 5664 5666 5667 5665 5667 5673 5672 5673 5674 5675 5676 5677 5680 5682 5683 5684 5686 5686 5686 5686 5685 5684 5684 5682 5681 5681 5680 5680 5678 5677 5677 5676 5675 5674 5674
5644 5645 5648 5650 5648 5637 5650 5660 5659 5657 5658 5661 5661 5662 5665 5666 5667 5669 5670 5670 5670 5672 5673 5675 5676 5678 5678 5678 5678 5678 5677 5675 5674 5673 5673 5674 5673 5672 5671 5670 5669 5669 5668 5668
5640 5638 5640 5641 5640 5640 5642 5647 5647 5645 5646 5653 5653 5655 5657 5660 5660 5661 5663 5665 5664 5665 5666 5667 5669 5671 5671 5670 5670 5669 5668 5668 5667 5667 5666 5667 5667 5666 5665 5664 5663 5662 5662 5661
5634 5633 5633 5635 5631 5626 5633 5639 5642 5639 5634 5641 5642 5642 5645 5649 5649 5653 5656 5657 5658 5658 5659 5660 5662 5662 5662 5663 5663 5662 5661 5661 5660 5660 5660 5660 5661 5660 5658 5657 5656 5656 5656 5655
5625 5625 5625 5626 5623 5624 5626 5630 5633 5624 5623 5629 5632 5635 5637 5639 5643 5646 5648 5649 5651 5651 5652 5654 5654 5654 5654 5655 5655 5655 5655 5654 5654 5653 5652 5653 5653 5652 5652 5651 5650 5649 5649 5649
5617 5618 5618 5620 5616 5612 5615 5618 5615 5613 5618 5621 5624 5627 5629 5632 5635 5637 5639 5640 5643 5644 5646 5646 5646 5646 5646 5646 5647 5647 5647 5647 5646 5645 5644 5644 5645 5646 5646 5644 5643 5643 5642 5642
5607 5606 5607 5606 5603 5602 5606 5605 5604 5607 5609 5613 5617 5619 5621 5624 5627 5629 5630 5632 5634 5635 5636 5637 5637 5637 5637 5638 5639 5639 5639 5639 5638 5637 5636 5637 5637 5638 5638 5637 5637 5637 5637 5637
5601 5600 5598 5596 5597 5596 5598 5598 5598 5600 5601 5605 5609 5612 5616 5617 5620 5621 5622 5623 5624 5626 5627 5627 5628 5628 5629 5630 5631 5631 5631 5631 5630 5629 5629 5629 5629 5630 5631 5631 5632 5632 5632 5631
5592 5593 5592 5590 5590 5590 5590 5590 5591 5593 5595 5597 5601 5606 5608 5609 5611 5613 5613 5614 5615 5616 5618 5618 5619 5619 5621 5622 5623 5624 5624 5623 5623 5623 5622 5622 5623 5624 5623 5624 5623 5624 5624 5623
5587 5585 5585 5585 5584 5583 5583 5585 5586 5585 5587 5590 5592 5596 5599 5601 5602 5604 5605 5606 5606 5607 5608 5609 5610 5611 5613 5614 5615 5615 5615 5615 5615 5615 5616 5617 5617 5617 5617 5617 5617 5614 5613 5611